Regional Weather Roundup
Issued by NWS

Home | Current Version | Previous Version | Text Only | Print | Product List | Glossary Off
Versions: 1 2 3 4 5 6 7 8 9 10 11 12 13 14 15 16 17 18 19 20 21 22 23 24 25 26 27 28 29 30 31 32 33 34 35 36 37 38 39 40 41 42 43 44 45 46 47 48 49 50

000
ASUS43 KLOT 210112
RWRIL

ILLINOIS REGIONAL WEATHER ROUNDUP
NATIONAL WEATHER SERVICE CHICAGO/ROMEOVILLE IL
800 PM CDT MON APR 20 2015

NOTE: "FAIR" INDICATES FEW OR NO CLOUDS BELOW 12,000 FEET WITH NO
SIGNIFICANT WEATHER AND/OR OBSTRUCTIONS TO VISIBILITY.

* THESE STATIONS ARE NOT UNDER NWS QUALITY CONTROL. THEY ALSO MAY NOT
  REPORT WEATHER SUCH AS PRECIPITATION OR FOG.

ILZ001-002-007-009-015-016-024-210200-
NORTHWEST ILLINOIS

CITY           SKY/WX    TMP DP  RH WIND       PRES   REMARKS
MOLINE         CLOUDY    46  36  68 W9        29.66R
STERLING*      MOCLDY    43  36  75 W15       29.65R
SAVANNA*       MOCLDY    45  35  68 W9G17     29.63R
$$

ILZ003-004-008-010-011-017-018-210200-
NORTH CENTRAL ILLINOIS

CITY           SKY/WX    TMP DP  RH WIND       PRES   REMARKS
ROCKFORD       PTCLDY    45  29  53 W13G23    29.61R
FREEPORT*      MOCLDY    42  31  65 W12       29.62R
ROCHELLE*      CLOUDY    44  32  64 W14       29.63R
DE KALB*       CLEAR     41  31  67 W16G23    29.61R
PERU*          CLOUDY    46  34  64 W14       29.66R
$$

ILZ005-006-012>014-019>023-210200-
NORTHEAST ILLINOIS

CITY           SKY/WX    TMP DP  RH WIND       PRES   REMARKS
CHICAGO-OHARE  PTCLDY    44  30  57 W14G25    29.58R
CHICAGO-MIDWAY PTCLDY    47  30  51 W17G25    29.60R
AURORA         CLEAR     43  31  62 W15       29.62R
LANSING*       CLEAR     46  28  49 W17G29    29.62R
JOLIET*        PTCLDY    46  33  59 W7        29.63R
WAUKEGAN       CLOUDY    44  31  60 W10G24    29.55R
DUPAGE AIRPORT CLEAR     43  31  62 W16       29.60R
KANKAKEE*      CLOUDY    46  37  72 W15       29.66R
WHEELING       PTCLDY    45  30  55 W14G23    29.58R
MORRIS*        PTCLDY    45  36  70 W15       29.61S
ROMEOVILLE*    PTCLDY    44  31  59 W14G23    29.62R
NORTHERLY ISL    N/A     47  29  50 W16         N/A
$$

LMZ740>746-210200-
SOUTHERN LAKE MICHIGAN

STATION/POSITION SKY/WX   TEMP    WIND        PRES    VSBY  WAVE
                          AIR SEA DIR/SP/G                  HT/PER
                          (F)     (DEG/KT/KT) (MB)    (MI)  (FT/S)
HARRISON CRIB              46     270/ 31/ 39   N/A
BURNHAM HARBOR             47     280/ 10/ 20   N/A
CALUMET HARBOR             47     250/  7/ 17   N/A
BURNS HARBOR               47     270/ 25/ 27 1002.4R
MICHIGAN CITY              46     240/ 30/ 34   N/A
MICHIGAN CITY 6N           45 45  280/ 16/ 21   N/A           6/ 5
$$

ILZ025>027-034>036-040-047-049-050-058-095>099-210200-
WEST-CENTRAL ILLINOIS

CITY           SKY/WX    TMP DP  RH WIND       PRES   REMARKS
QUINCY         PTCLDY    50  27  40 W9        29.75S
GALESBURG*     PTCLDY    47  32  56 W10       29.69R
MACOMB*        PTCLDY    48  32  55 W10       29.74R
JACKSONVILLE*  CLOUDY    52  36  55 W6        29.76R
PITTSFIELD*    PTCLDY    52  31  44 W8        29.78R
$$

ILZ028>032-037-038-041>044-048-051>054-059>061-210200-
CENTRAL ILLINOIS

CITY           SKY/WX    TMP DP  RH WIND       PRES   REMARKS
PONTIAC        MOCLDY    45  38  76 W12       29.69R
BLOOMINGTON    MOCLDY    48  35  60 W12       29.71R
DECATUR        MOCLDY    49  34  56 W8        29.74R
PEORIA         MOCLDY    50  32  50 W7        29.70R
LACON*         CLOUDY    46  35  64 W7        29.68S
LINCOLN*       CLOUDY    50  36  57 W6        29.72R
SPRINGFIELD    MOCLDY    49  35  58 W10       29.76R
TAYLORVILLE    CLOUDY    46  37  71 SW8       29.77R
$$

ILZ033-039-045-046-055>057-062-063-210200-
EAST-CENTRAL ILLINOIS

CITY           SKY/WX    TMP DP  RH WIND       PRES   REMARKS
CHAMPAIGN      MOCLDY    46  37  71 SW12      29.72R
DANVILLE*      MOCLDY    46  35  67 W13       29.69R
RANTOUL*       PTCLDY    47  37  67 W12       29.71R
MATTOON        CLOUDY    48  35  60 W7        29.75R
PARIS*         MOCLDY    47  40  78 W8        29.75S
$$

ILZ079-100>102-210200-
SOUTHWEST ILLINOIS

CITY           SKY/WX    TMP DP  RH WIND       PRES   REMARKS
ALTON          PTCLDY    50  30  46 W7        29.80R
BELLEVILLE     MOCLDY    51  34  50 W3        29.80R
CAHOKIA*       CLOUDY    55  31  39 W8        29.80R
SPARTA*        PTCLDY    52  34  50 W8        29.83R
$$

ILZ064>066-069>071-074>076-080>082-084>086-088>090-092>094-210200-
SOUTH-CENTRAL ILLINOIS

CITY           SKY/WX    TMP DP  RH WIND       PRES   REMARKS
CARBONDALE     PTCLDY    53  34  48 NW6       29.82R
CAIRO*         PTCLDY    57  38  48 NW7       29.82R
EFFINGHAM*     MOCLDY    50  30  46 SW7       29.80R
MARION         PTCLDY    55  34  44 NW3       29.83R
MT. VERNON     CLOUDY    52  32  46 W3        29.82R
CENTRALIA*     CLOUDY    50  33  53 W7        29.81R
SALEM*         MOCLDY    52  36  54 W6        29.80S
METROPOLIS*    MOCLDY    57  38  49 NW3       29.81R
$$

ILZ067-068-072-073-078-083-087-091-210200-
SOUTHEAST ILLINOIS

CITY           SKY/WX    TMP DP  RH WIND       PRES   REMARKS
LAWRENCEVILLE  CLOUDY    53  37  54 W10       29.79R
FLORA*         CLOUDY    51  34  52 W8        29.81R
FAIRFIELD*     CLOUDY    53  35  49 W3        29.80R
HARRISBURG*    PTCLDY    54  34  47 NW8       29.83R
ROBINSON*      CLOUDY    51  35  54 W16G29    29.79R
CARMI*         PTCLDY    52  33  46 NW14      29.81R
$$

ABBREVIATIONS USED IN REMARKS
   TC - TEMPERATURE IN CELSIUS
  WCI - WIND CHILL INDEX
   HX - HEAT INDEX
  VSB - VISIBILITY
$$




USA.gov is the U.S. government's official web portal to all federal, state and local government web resources and services.